Regional Weather Roundup
Issued by NWS

Home | Current Version | Previous Version | Text Only | Print | Product List | Glossary On
Versions: 1 2 3 4 5 6 7 8 9 10 11 12 13 14 15 16 17 18 19 20 21 22 23 24 25 26 27
000
ASUS42 KTBW 250717
RWRFL
FLORIDA REGIONAL WEATHER ROUNDUP
NATIONAL WEATHER SERVICE TAMPA BAY RUSKIN FL
300 AM EDT SUN JUN 25 2017

NOTE: "FAIR" INDICATES FEW OR NO CLOUDS BELOW 12,000 FEET WITH NO
SIGNIFICANT WEATHER AND/OR OBSTRUCTIONS TO VISIBILITY.

FLZ001>010-012>015-112-114-115-250800-
PANHANDLE FLORIDA

CITY           SKY/WX    TMP DP  RH WIND       PRES   REMARKS
PENSACOLA      CLOUDY    81  73  76 W6        30.06F
PENSACOLA NAS  PTCLDY    78  74  87 CALM      30.06S
MILTON NAS     CLOUDY    75  73  93 W3        30.07
CRESTVIEW      CLEAR     74  72  93 CALM      30.08S
DUKE FIELD     FAIR      76  75  95 CALM      30.06S
VALPARAISO     MOCLDY    80  77  93 S3        30.06S
MARY ESTHER    CLOUDY    80  76  86 SW3       30.04
PANAMA CITY    FAIR      78  76  93 S3        30.06F
TYNDALL AFB    MOCLDY    80  75  84 W8        30.07F
APALACHICOLA   CLEAR     77  77 100 W5        30.07F

STATION/POSITION SKY/WX   TEMP    WIND        PRES    WAVE   SWELL
                          AIR SEA DIR/SP/G            HT/PER HT/PER
                          (F)     (DEG/KT/KT) (MB)    (FT/S) (FT/S)
30.1N   87.6W              83 83  270/ 10/ 10 1017.9    2/ 6   2/ 6
29.2N   88.2W              82 83  220/  8/ 10 1018.5F   2/ 7   2/ 7
28.8N   86.0W              81 83  210/  4/  6 1018.6    2/ 8   2/ 8
PANAMA CITY BEAC              84  250/ 10/ 11 1018.4F
TOWER C                    81     270/  8/  9 1018.9F
28.5N   84.5W              82 83  250/  2/  2 1018.7    2/ 6   2/ 6

$$
FLZ011-016>038-118-127-128-134-139-239-250800-
NORTH FLORIDA

CITY           SKY/WX    TMP DP  RH WIND       PRES   REMARKS
MARIANNA       CLOUDY    79  74  84 E5        30.05F
TALLAHASSEE    CLEAR     77  74  90 CALM      30.07F
PERRY          CLEAR     74  73  96 CALM      30.08S FOG
CROSS CITY     CLEAR     73  72  94 CALM      30.08S
LAKE CITY      FAIR      73  73 100 CALM      30.08S
GAINESVILLE    PTCLDY    75  72  90 CALM      30.09S
WILLISTON      CLEAR     75  75 100 MISG      30.09F
PALATKA        CLOUDY    77  77 100 SW6       30.09S
MAYPORT NAS    PTCLDY    79  76  90 S3        30.07F
JACKSONVILLE   MOCLDY    75  73  93 SW5       30.06F
JAX NAS        MOCLDY    82  72  71 S5        30.08F
FERNANDINA BEA FAIR      81  73  78 SW7       30.05F
ST AUGUSTINE   CLOUDY    78  74  87 SW5       30.08F
PALM COAST     MOCLDY    77  76  97 SW5       30.09S

STATION/POSITION SKY/WX   TEMP    WIND        PRES    WAVE   SWELL
                          AIR SEA DIR/SP/G            HT/PER HT/PER
                          (F)     (DEG/KT/KT) (MB)    (FT/S) (FT/S)
SHELL POINT      NOT AVBL
KEATON BEACH               82     270/  9/ 10 1017.9F
CEDAR KEY                  83     280/  4/  4 1019.3S
FERNANDINA                    84  230/  3/  6 1018.8F
30.7N   81.3W                 79                N/A     3/ 5
MAYPORT                       81  170/  3/  5 1018.8F
31.4N   80.9W              81 82  200/ 14/ 16 1017.2F   3/ 5   2/ 8
ST AUGUSTINE               78 77  190/  6/  7 1018.6F

$$
FLZ040-043>046-052-053-057-058-063-144-250800-
INTERIOR CENTRAL FLORIDA

CITY           SKY/WX    TMP DP  RH WIND       PRES   REMARKS
OCALA          CLOUDY    76  74  93 CALM      30.10F
THE VILLAGES     N/A     79  79 100 CALM      30.00S
LEESBURG       CLOUDY    81  75  82 SE5       30.11S
SANFORD        CLOUDY    77  74  90 W6        30.10S
ORLANDO EXEC   CLOUDY    79  76  90 CALM      30.10F
ORLANDO INTL   CLOUDY    76  76 100 CALM      30.10F
KISSIMMEE      CLOUDY    80  76  87 E3        30.10F
WINTER HAVEN   CLOUDY    80  73  79 SE5       30.10F
LAKELAND       CLEAR     77  77 100 CALM      30.10F
BARTOW           N/A     75  75 100 CALM      30.10F
SEBRING        FAIR      79  74  83 CALM      30.10S

$$
FLZ041-047-054-059-064-141-147-250800-
EAST CENTRAL FLORIDA

CITY           SKY/WX    TMP DP  RH WIND       PRES   REMARKS
DAYTONA BEACH  CLOUDY    79  76  90 SW9       30.09F
DELAND         CLOUDY    77  73  88 SW7       30.09F
JFK SPACE CTR  PTCLDY    80  76  90 W8        30.09F
CAPE CANAVERAL CLEAR     79  75  89 SW6       30.08S
PATRICK AFB    CLEAR     80  75  85 SW9       30.09F
MELBOURNE      CLEAR     79  75  87 S7        30.09F
VERO BEACH     CLEAR     77  74  90 S3        30.09F
FT PIERCE      CLEAR     74  73  97 CALM      30.09F
STUART         CLEAR     77  77 100 CALM      30.10F

STATION/POSITION SKY/WX   TEMP    WIND        PRES    WAVE   SWELL
                          AIR SEA DIR/SP/G            HT/PER HT/PER
                          (F)     (DEG/KT/KT) (MB)    (FT/S) (FT/S)
28.5N   80.2W              81 80  190/ 10/ 12 1020.1F   2/ 8   2/ 8
28.9N   78.5W              82 83  160/ 14/ 16 1019.0F   3/ 7   2/ 7
TRIDENT PIER                  83  190/  6/  8 1020.6F
28.4N   80.5W                 78                N/A     2/ 4
27.5N   80.2W                 78                N/A     1/ 8

$$
FLZ050-056-061-142-242-148-248-149-249-151-251-155-255-
160-260-250800-
WEST CENTRAL FLORIDA

CITY           SKY/WX    TMP DP  RH WIND       PRES   REMARKS
CRYSTAL RIVER  FAIR      75  73  94 CALM      30.09F
INVERNESS      CLOUDY    75  75 100 CALM      30.10S
BROOKSVILLE    MOCLDY    76  74  93 CALM      30.10F
CLEARWATER AIR CLOUDY    79  77  94 CALM      30.08F
ST PETE CLEARW PTCLDY    81  76  84 CALM      30.08F
TAMPA INTL     MOCLDY    82  75  79 CALM      30.09F
TAMPA EXEC     CLEAR     79  75  89 CALM      30.09F
PLANT CITY     CLEAR     79  77  94 MISG      30.11F
MACDILL AFB    PTCLDY    78  77  97 CALM      30.08F
PETER O KNIGHT CLOUDY    82  79  89 CALM      30.09S
ST PETERSBURG  CLEAR     83  76  79 NW3       30.07F
SARASOTA       CLOUDY    80  75  84 NE5       30.07F
VENICE         CLOUDY    82  75  78 E5        30.08F

STATION/POSITION SKY/WX   TEMP    WIND        PRES    WAVE   SWELL
                          AIR SEA DIR/SP/G            HT/PER HT/PER
                          (F)     (DEG/KT/KT) (MB)    (FT/S) (FT/S)
27.3N   84.2W                 83                N/A     2/ 6
CLEARWATER BEACH              86  340/  5/  6 1019.1F
MIDDLE TAMPA BAY                  310/  1/  3 1019.0F
VENICE                     82 87   60/  6/  7 1018.7S

$$
FLZ066-069-070-075>078-162-262-165-265-250800-
SOUTHWEST FLORIDA AND KEYS

CITY           SKY/WX    TMP DP  RH WIND       PRES   REMARKS
PUNTA GORDA    MOCLDY    79  78  97 NE6       30.10S
FT MYERS       CLOUDY    78  77  96 E3        30.07F
SOUTHWEST INTL CLEAR     78  75  90 CALM      30.08F
NAPLES         CLEAR     79  76  90 NE3       30.08F
MARCO ISLAND   PTCLDY    79  75  89 NE3       30.08S
IMMOKALEE        N/A     75  73  94 CALM      30.09F
MARATHON       CLEAR     82  78  88 VRB3      30.06F
KEY WEST NAS   PTCLDY    82  77  84 E14       30.06F
KEY WEST INTL  MOCLDY    83  76  79 E15       30.06F

STATION/POSITION SKY/WX   TEMP    WIND        PRES    WAVE   SWELL
                          AIR SEA DIR/SP/G            HT/PER HT/PER
                          (F)     (DEG/KT/KT) (MB)    (FT/S) (FT/S)
NAPLES                        87   80/  3/  5 1018.5F
DRY TORTUGAS               83     110/ 17/ 19 1017.4F
SAND KEY                   82     120/ 16/ 18 1018.3F
LONG KEY                   83 85  150/  9/ 11 1018.1
MOLASSES REEF              83 83  100/  9/ 10 1018.3

$$
FLZ067-068-071>074-168-172>174-250800-
SOUTHEAST FLORIDA

CITY           SKY/WX    TMP DP  RH WIND       PRES   REMARKS
W PALM BEACH   PTCLDY    81  73  76 SE6       30.08F
FT LAUDER-EXEC PTCLDY    77  74  90 SE6       30.08F
FT LAUDERDALE  PTCLDY    82  75  79 SE9       30.07F
POMPANO BEACH  PTCLDY    83  75  77 SE9       30.08F
PEMBROKE PINES CLEAR     82  73  74 SE5       30.09F
OPA LOCKA      CLEAR     82  75  79 SE6       30.08F
MIAMI          PTCLDY    83  74  74 E9        30.08F
WEST KENDALL   CLEAR     82  74  76 SE8       30.07F
HOMESTEAD      PTCLDY    82  76  82 E6        30.07S

STATION/POSITION SKY/WX   TEMP    WIND        PRES    WAVE   SWELL
                          AIR SEA DIR/SP/G            HT/PER HT/PER
                          (F)     (DEG/KT/KT) (MB)    (FT/S) (FT/S)
PORT EVERGLADES            83     110/  4/  9 1018.4F
VIRGINIA KEY                  87   80/ 10/ 13 1017.7F
LAKE WORTH                    82  140/ 11/ 13 1019.5F
FOWEY ROCKS                82 82  100/ 15/ 17 1018.8F
SETTLEMENT POINT           81     140/  8/ 10 1018.8F

$$





USA.gov is the U.S. government's official web portal to all federal, state and local government web resources and services.